Tracking 30995 objects as of 5-Jul-2025
HD Live streaming from Space Station
objects crossing your sky now

OBJECT T

Track OBJECT T now!
10-day predictions


NORAD ID: 51841
Int'l Code: 2022-019T
Perigee: 449.3 km
Apogee: 452.5 km
Inclination: 97.4 °
Period: 93.5 minutes
Semi major axis: 6821 km
RCS: Unknown
Launch date: February 27, 2022
Source: People's Republic of China (PRC)
Launch site: Wenchang Satellite Launch Center (WSC)
Your satellite tracking list
ATLAS 2A CENTAUR R/B
Track 1 satellite(s)




NASA's NSSDC Master Catalog

Two Line Element Set (TLE):
1 51841U 22019T   25186.59261754  .00019779  00000-0  48445-3 0  9995
2 51841  97.3937 266.1934 0002310 281.7531  78.3456 15.40788695186059
Source of the keplerian elements: AFSPC